Simultaneous Nadir Overpasses (SNOs) Predictions

Prediction of SNOs between AQUA and METOP-B Satellite Orbit:

Table of predicted SNOs for the next 14.0 days since TLE Epoch: 5/7/2016
Index Date (AQUA) Time (AQUA) Lat,Lon (AQUA) SZA (AQUA ) Date (METOP-B) Time (METOP-B) Lat,Lon (METOP-B) SZA (METOP-B ) Distance(km) Time Diff (sec)
1 05/09/2016 21:48:25 -73.76, 27.34 123.93 05/09/2016 21:47:12 -73.75, 27.21 123.92 4.10 73
2 05/09/2016 22:37:54 73.85,-165.22 56.16 05/09/2016 22:37:49 73.87,-165.16 56.19 3.23 5
3 05/09/2016 23:27:21 -73.92, 2.27 123.78 05/09/2016 23:28:30 -73.93, 2.30 123.77 1.53 69
4 05/12/2016 17:22:36 -73.78, 93.75 124.62 05/12/2016 17:21:35 -73.79, 93.73 124.60 1.22 61
5 05/12/2016 18:12:05 73.87, -98.82 55.47 05/12/2016 18:12:13 73.87, -98.76 55.46 1.98 8
6 05/12/2016 19:01:38 -74.25, 67.97 124.14 05/12/2016 19:02:47 -74.26, 69.55 124.17 47.87 69
7 05/15/2016 12:56:46 -73.82, 160.12 125.25 05/15/2016 12:55:57 -73.83, 160.23 125.24 3.61 49
8 05/15/2016 13:46:14 73.86, -32.33 54.79 05/15/2016 13:46:36 73.85, -32.38 54.78 1.54 22
9 05/18/2016 08:30:56 -73.82,-133.42 125.89 05/18/2016 08:30:21 -73.82,-133.39 125.88 0.92 35
10 05/18/2016 09:20:24 73.86, 34.12 54.16 05/18/2016 09:20:59 73.89, 34.12 54.18 3.04 35
11 05/21/2016 04:05:06 -73.83, -67.00 126.46 05/21/2016 04:04:44 -73.85, -66.91 126.44 3.13 22
12 05/21/2016 04:54:34 73.88, 100.54 53.59 05/21/2016 04:55:23 73.87, 100.49 53.58 1.87 49




NCC Satellite Simultaneous Nadir Overpasses (SNOs) Prediction Service
